User: anonymous
Location: Trois-Rivi�res
(46.3500°N, 72.5500°W)
Time: 14:12:42
(UTC-04:00)
Language:

Cosmos 1975 - Orbit

View from above orbital plane
View from above orbital plane
View from above satellite
View from above satellite

Ground track
Ground track

The orbit data is extracted from the following two-line orbital elements,

1 19573U 88093A   14107.13694313  .00003530  00000-0  28056-3 0  1656
2 19573 082.5256 022.3472 0013943 269.7854 090.1773 15.00104474386040
Epoch (UTC): 17 April 2014 03:17:11
Eccentricity: 0.0013943
inclination: 82.5256°
perigee height: 557 km
apogee height: 576 km
right ascension of ascending node: 22.3472°
argument of perigee: 269.7854°
revolutions per day: 15.00104474
mean anomaly at epoch: 90.1773°
orbit number at epoch: 38604

The dashed part of the orbit path shows where the satellite is in the earth's shadow,  

DLR